Location: ???????
(60.4774°N, 46.5691°E)
Time: 20:14:24
(UTC+00:00)

Daily predictions for brighter satellites

Satellite Brightness Start Highest point End
(mag) Time Altitude Azimuth Time Altitude Azimuth Time Altitude Azimuth
Cosmos 921 Rocket 3.7 12:50:33 10° S 12:54:47 41° ESE 12:59:03 10° NE
Cosmos 1980 Rocket 2.6 12:49:21 10° WSW 12:54:54 61° NW 13:00:29 10° NE
NOSS 2-1 (E) 4.3 12:50:57 10° WNW 12:55:19 70° SSW 13:01:23 10° SE
USA 267 3.7 12:49:21 10° ESE 12:55:51 65° S 13:02:20 10° W
CZ-4 R/B 3.2 12:54:04 10° ENE 12:55:51 13° NE 12:57:38 10° NNE
SL-16 R/B 2.3 12:50:28 10° SSW 12:56:06 71° SE 13:01:46 10° NE
CZ-4B R/B 3.4 12:51:38 10° SE 12:56:42 46° ENE 13:01:45 10° NNW
Cosmos 192 4.4 12:51:56 10° SSW 12:56:54 82° ESE 13:01:54 10° NE
ALOS 3.6 12:52:31 10° S 12:57:00 45° W 13:01:31 10° NNW
Cosmos 1633 2.5 12:53:27 10° NNW 12:57:02 80° ENE 13:00:38 10° SSE
Meteor 2-10 Rocket 3.8 12:52:51 10° SSW 12:57:52 70° WNW 13:03:02 10° NNE
Cosmos 1500 Rocket 4.1 12:54:01 10° N 12:58:07 37° ENE 13:02:12 10° SE
COSMOS 2455 4.3 12:52:51 10° NW 12:58:33 44° WSW 13:04:13 10° SSE
Meteor 2-1 Rocket 4.5 12:55:19 10° SSW 13:01:02 80° WNW 13:06:53 10° NNE
NOAA 12 4.4 12:57:14 10° SE 13:02:18 46° ENE 13:07:22 10° NNW
Cosmos 2151 3.9 12:59:55 10° NNW 13:04:03 53° W 13:08:11 10° S
Okean 3 Rocket 3.8 12:59:55 10° NNW 13:04:24 82° WSW 13:08:54 10° S
Cosmos 2369 Rocket 3.0 12:59:58 10° NW 13:05:08 33° NNE 13:10:16 10° E
Cosmos 2221 3.8 13:01:50 10° SE 13:05:12 22° E 13:08:33 10° NE
Cosmos 1844 Rocket 4.4 13:01:44 10° NW 13:07:00 39° WSW 13:12:13 10° S
Cosmos 1939 Rocket 4.1 13:07:22 10° ESE 13:10:17 21° NE 13:13:13 10° N
Cosmos 2369 4.5 13:04:58 10° WSW 13:10:25 45° NNW 13:15:53 10° NE
Meteor 2-3 Rocket 4.1 13:06:09 10° NNW 13:11:59 73° WSW 13:17:47 10° S
Cosmos 540 Rocket 4.4 13:08:12 10° SSE 13:12:32 28° ESE 13:16:53 10° NE
GENESIS II 4.3 13:10:39 10° WNW 13:14:41 83° SSW 13:18:38 10° SE
Cosmos 1766 Rocket 3.9 13:10:49 10° NNW 13:15:17 72° W 13:19:42 10° S
GEOS 3 Rocket 3.8 13:10:18 10° ENE 13:15:45 76° NNW 13:21:08 10° WSW
Cosmos 1869 4.1 13:12:48 10° SSE 13:16:28 33° E 13:20:11 10° NNE
YAOGAN 1 4.0 13:15:41 10° E 13:18:34 18° NE 13:21:27 10° N
SJ 16-02 4.1 13:15:21 10° NW 13:18:51 23° W 13:22:19 10° SSW
Cosmos 1812 Rocket 4.0 13:14:33 10° SSW 13:18:51 64° WNW 13:23:12 10° N
CORIOLIS 4.3 13:14:41 10° SE 13:19:57 54° ENE 13:25:16 10° NNW
Cosmos 1743 Rocket 3.7 13:15:42 10° N 13:20:08 53° ENE 13:24:31 10° SSE
Cosmos 2315 Rocket 4.0 13:13:56 10° S 13:20:08 70° E 13:26:26 10° NNE
Cosmos 841 Rocket 4.3 13:15:40 10° SSE 13:20:14 31° ESE 13:24:48 10° NE
Meteor 2-17 Rocket 4.5 13:14:21 10° NNW 13:20:29 90° WSW 13:26:37 10° SSE
SL-16 R/B 3.4 13:14:32 10° NNE 13:20:33 49° NW 13:26:32 10° SW
Cosmos 2237 4.4 13:16:28 10° SSW 13:22:05 62° ESE 13:27:43 10° NE
AQUARIUS 4.3 13:18:26 10° SE 13:22:47 50° ENE 13:27:10 10° N
Okean-O 3.9 13:19:34 10° E 13:22:55 21° NE 13:26:16 10° N
Envisat 3.0 13:18:13 10° SSE 13:23:18 80° ENE 13:28:26 10° NNW
Cosmos 2154 Rocket 4.1 13:17:35 10° N 13:23:49 55° ENE 13:30:03 10° SE
Cosmos 1408 Rocket 3.6 13:22:22 10° NNW 13:26:50 89° WSW 13:31:13 10° SSE
SeaSat 1 3.9 13:24:10 10° NE 13:27:58 23° N 13:31:47 10° NW
Cosmos 2297 3.9 13:23:21 10° NW 13:28:53 51° NE 13:34:26 10° ESE
H-2A R/B 3.2 13:25:11 10° E 13:29:08 22° NE 13:33:01 10° N
Cosmos 2341 Rocket 4.4 13:24:54 10° N 13:30:47 41° ENE 13:36:42 10° SE
Sich 1 3.7 13:28:10 10° N 13:32:16 34° ENE 13:36:18 10° SE
H-2A R/B 2.5 13:28:58 10° SSE 13:33:17 89° SW 13:37:29 10° NNW
Okean O Rocket 1.6 13:31:37 10° SSE 13:35:55 63° ENE 13:40:17 10° NNW
H-2A R/B 3.2 13:33:51 10° S 13:37:40 66° WSW 13:41:34 10° NNW
USA 281 3.3 13:31:36 10° ESE 13:38:01 58° NE 13:44:27 10° NNW
Cosmos 1943 Rocket 2.5 13:33:36 10° NW 13:38:53 44° NNE 13:44:11 10° ESE
Cosmos 1842 Rocket 3.9 13:36:09 10° SSE 13:40:14 42° E 13:44:20 10° NNE
Cosmos 1805 Rocket 3.8 13:36:04 10° N 13:40:25 47° ENE 13:44:44 10° SE
Cosmos 405 Rocket 2.6 13:36:42 10° NNW 13:40:32 71° ENE 13:44:27 10° SSE
Cosmos 2322 Rocket 2.3 13:39:00 10° SW 13:44:43 79° NW 13:50:07 12° NE
Cosmos 2285 Rocket 4.2 13:39:48 10° NNW 13:46:06 52° NE 13:52:19 10° ESE
Cosmos 1666 Rocket 4.2 13:42:20 10° N 13:46:18 32° ENE 13:50:16 10° SE
PAYLOAD B 4.5 13:41:25 10° SSE 13:47:02 76° WSW 13:52:39 10° NNW
Aureole 2 Rocket 4.4 13:44:49 10° NW 13:47:09 26° WSW 13:49:32 10° S
Cosmos 1570 Rocket 4.4 13:43:51 10° S 13:48:51 43° ESE 13:53:14 13° NE
Radarsat Rocket 4.4 13:43:04 10° SSE 13:49:11 77° WSW 13:56:04 10° NNW
Cosmos 44 Rocket 3.8 13:46:34 10° WNW 13:51:29 51° N 13:55:14 18° ENE
Cosmos 2327 Rocket 4.4 13:45:40 10° NNW 13:51:49 77° ENE 13:58:00 10° SSE
Cosmos 2074 Rocket 4.1 13:46:10 10° NNW 13:52:24 82° W 13:58:39 10° S
SMAP 3.0 13:48:04 10° SSE 13:52:44 88° ENE 13:57:27 10° NNW
YAOGAN 6 2.9 13:51:15 10° S 13:54:54 72° WSW 13:58:33 10° NNW
ADEOS Rocket 3.6 13:48:11 10° NNE 13:55:38 71° ESE 14:03:26 10° S
ARGOS 4.1 13:52:43 12° E 13:56:45 26° NE 14:01:10 10° N
Helios 1A Rocket 3.6 13:54:25 10° ESE 13:57:58 30° ENE 14:01:32 10° N
Feng Yun 1-1 Rocket 4.3 13:52:21 10° SE 13:58:01 62° ENE 14:03:35 10° NNW
SL-8 Rocket 4.2 13:53:25 10° N 13:59:24 46° ENE 14:05:23 10° SE
Cosmos 2333 Rocket 2.5 13:54:20 10° SSW 13:59:49 51° ESE 14:04:09 16° NE
Cosmos 1607 4.2 13:53:58 10° SSW 14:00:11 57° SE 14:04:59 18° ENE
Meteor 1-27 4.2 13:55:00 10° SSW 14:00:38 85° ESE 14:06:25 10° NNE
CZ-2C R/B 3.4 13:58:09 10° ESE 14:02:45 37° ENE 14:07:12 10° N
SL-08 R/B 4.0 13:58:33 10° NNE 14:03:25 56° WNW 14:08:13 10° SW
Cosmos 2184 Rocket 4.3 13:57:06 10° NNW 14:03:30 74° W 14:09:51 10° S
CZ-4C R/B 3.0 14:00:10 11° NNE 14:03:37 63° ESE 14:07:13 10° S
Cosmos 1697 Rocket 3.9 13:59:20 10° W 14:04:24 32° NNW 14:08:26 15° NE
COSMOS 2428 3.1 13:59:39 10° S 14:05:07 47° ESE 14:09:09 18° NE
Cosmos 2278 Rocket 3.0 14:01:48 10° NW 14:07:21 55° WSW 14:12:53 10° SSE
H-2A R/B 2.1 14:03:51 11° NNE 14:07:42 52° ESE 14:11:47 10° S
Ariane Rocket 4.4 14:07:15 18° NE 14:07:58 19° NE 14:11:27 10° N
Cosmos 1763 Rocket 3.4 14:04:56 10° SSW 14:10:02 87° WNW 14:14:28 14° NNE
Cosmos 2084 Rocket 3.7 14:07:08 10° SW 14:11:10 52° SE 14:13:22 25° ENE
Landsat 5 3.5 14:07:22 10° NNE 14:11:39 70° ESE 14:16:04 10° S
Cosmos 1606 3.7 14:09:45 10° SE 14:12:59 25° E 14:12:59 25° E
Meteor 1-25 Rocket 4.3 14:08:20 10° NNW 14:13:48 51° ENE 14:19:16 10° SE
Cosmos 405 2.8 14:11:46 10° S 14:15:15 67° ESE 14:17:43 18° NNE
Cosmos 389 Rocket 4.5 14:12:44 10° SE 14:13:31 14° SE 14:13:31 14° SE
Cosmos 1862 3.7 14:11:49 10° NNW 14:15:51 66° W 14:19:51 10° S
Cosmos 1295 Rocket 4.4 14:10:55 10° NNW 14:17:05 88° ENE 14:23:17 10° SSE
Meteor 2-12 Rocket 4.4 14:11:58 10° NNW 14:18:11 75° ENE 14:24:20 10° SSE
Cosmos 1633 Rocket 3.3 14:13:59 10° N 14:18:15 46° ENE 14:22:29 10° SE
Cosmos 1125 Rocket 4.1 14:20:35 10° NW 14:25:43 59° WSW 14:30:49 10° SSE
Cosmos 2360 Rocket 2.4 14:20:46 10° SW 14:26:24 73° NW 14:30:40 18° NE
NOSS 3-3 (A) 4.3 14:20:27 10° WNW 14:27:11 73° N 14:32:20 23° E
NOSS 3-3 (C) 4.3 14:20:33 10° WNW 14:27:16 73° N 14:32:25 23° E
CZ-4 R/B 1.5 14:26:14 10° SE 14:30:02 47° ENE 14:33:55 10° N
Cosmos 2208 Rocket 4.0 14:26:45 10° SSW 14:32:00 68° ESE 14:35:41 21° NE
Cosmos 921 Rocket 4.0 14:28:43 10° SW 14:33:05 46° NW 14:36:51 14° NNE
IRS-1C Rocket 4.0 14:28:13 10° SSE 14:33:30 80° ENE 14:38:50 10° NNW
Cosmos 44 3.6 14:28:23 10° WNW 14:33:32 76° SW 14:38:28 12° SE
CSL-04 Debris 4.4 14:29:18 10° SE 14:34:34 47° ENE 14:39:49 10° NNW
Cosmos 2219 Rocket 2.1 14:29:43 10° SSW 14:35:21 73° SE 14:38:56 23° NE
Cosmos 1602 4.2 14:31:45 10° N 14:35:30 38° ENE 14:35:37 38° ENE
CZ-4B R/B 4.2 14:32:11 10° S 14:37:20 48° W 14:42:30 10° NNW
CSL-04 DEB 4.3 14:36:13 21° NNE 14:38:48 70° ESE 14:42:54 10° S
CZ-2D R/B 3.1 14:35:16 10° SSE 14:39:04 70° ENE 14:42:55 10° NNW
USA 267 4.3 14:33:25 10° SE 14:39:35 43° SSW 14:45:46 10° WNW
Cosmos 1980 Rocket 3.4 14:34:56 10° WNW 14:39:55 32° NNW 14:43:04 19° NE
SL-16 R/B 3.0 14:35:09 10° WSW 14:40:35 45° NNW 14:44:26 19° NNE
Cosmos 1356 3.4 14:37:48 10° NNW 14:41:14 78° WSW 14:44:40 10° S
ERS-2 2.5 14:41:42 41° ESE 14:41:42 41° ESE 14:44:58 10° S
Cosmos 2221 2.7 14:38:01 10° SSW 14:42:21 71° WNW 14:46:42 10° NNE
Cosmos 2218 Rocket 3.9 14:36:51 10° NNW 14:43:02 68° ENE 14:49:09 10° SSE
Cosmos 2237 Rocket 2.6 14:38:07 10° S 14:43:18 39° ESE 14:44:56 32° ENE
Cosmos 1939 Rocket 2.8 14:40:55 10° SSE 14:44:48 81° WSW 14:48:45 10° NNW
Cosmos 371 Rocket 4.4 14:40:43 10° NNW 14:44:55 27° NNE 14:45:19 27° NE
DNEPR-1 R/B 4.4 14:41:12 10° WSW 14:48:05 84° NNW 14:50:59 31° ENE
Cosmos 2369 Rocket 2.2 14:44:26 10° NW 14:50:09 64° NE 14:53:01 30° ESE
Cosmos 1656 Rocket 4.0 14:44:41 10° NW 14:50:14 49° NE 14:52:08 35° E
USA 81 3.9 14:45:51 10° N 14:51:11 73° E 14:56:28 10° SSE
Cosmos 2322 3.7 14:45:31 10° SW 14:51:13 81° NW 14:54:44 25° NE
CZ-4B R/B 2.4 14:53:47 30° S 14:53:47 30° S 14:55:34 10° S
Cosmos 1470 Rocket 3.5 14:48:15 10° N 14:52:34 54° ENE 14:54:02 36° SE
Meteor 1-11 Rocket 4.5 14:47:41 10° N 14:52:43 31° NE 14:52:51 31° NE
GEOS 3 Rocket 4.0 14:51:11 32° ENE 14:53:33 55° N 14:58:49 10° W
Cosmos 540 Rocket 3.5 14:48:37 10° SW 14:53:45 76° NW 14:57:02 23° NNE
YAOGAN 1 2.4 14:49:43 10° SSE 14:54:00 67° ENE 14:58:20 10° NNW
Cosmos 2366 rocket 3.9 14:49:26 10° NNW 14:55:44 76° ENE 15:01:56 10° SSE
COSMO-SKYMED 1 2.8 14:56:32 46° E 14:56:32 46° E 15:00:41 10° S
Meteor 2-2 Rocket 4.5 14:50:50 10° SSW 14:56:48 75° WNW 15:02:41 10° NNE
Okean-O 2.5 14:54:26 10° SSE 14:58:52 83° ENE 15:03:21 10° NNW
CSL-04 Rocket 3.6 14:55:27 16° SE 14:59:43 61° ENE 15:04:59 10° NNW
Cosmos 1980 3.9 14:55:36 10° SSW 15:01:05 51° ESE 15:02:42 40° ENE
Cosmos 841 Rocket 3.7 14:56:35 10° SW 15:01:49 71° NW 15:05:01 24° NNE
SeaSat 1 3.5 15:03:57 28° NNE 15:04:28 29° NNE 15:08:42 10° NW
Meteor 1-14 Rocket 4.2 15:00:21 10° NNW 15:06:14 67° ENE 15:12:10 10° SSE
Nadezhda 1 Rocket 4.2 15:00:32 10° SSW 15:06:53 77° WNW 15:13:22 10° NNE
H-2A R/B 1.9 15:02:37 10° SSE 15:07:54 71° ENE 15:13:04 10° NNW
Sich 1 4.1 15:05:51 10° NNW 15:10:07 47° W 15:14:20 10° SSW
Okean O Rocket 3.8 15:08:57 10° SSW 15:12:39 27° W 15:16:24 10° NW
Cosmos 2297 4.2 15:07:41 10° NW 15:13:15 59° WSW 15:18:49 10° SSE
Cosmos 2333 4.5 15:08:36 10° SW 15:14:14 64° NW 15:17:07 29° NNE
Cosmos 2341 Rocket 4.5 15:10:37 10° NNW 15:16:47 62° W 15:22:58 10° S
SL-08 RB Rocket 4.3 15:20:09 43° NNE 15:20:09 43° NNE 15:23:43 10° N
SKYMED 3 4.5 15:20:52 69° SE 15:20:52 69° SE 15:24:59 10° S
USA 281 3.9 15:16:13 10° SSE 15:22:39 55° WSW 15:29:07 10° NW
Cosmos 1943 Rocket 2.3 15:17:30 10° NW 15:23:02 72° SW 15:26:21 25° SSE
Cosmos 1933 Rocket 3.5 15:18:55 10° NNW 15:23:01 66° NE 15:23:01 66° NE
Cosmos 1666 Rocket 4.4 15:20:08 10° NNW 15:24:23 51° W 15:28:39 10° S
Cosmos 2239 Rocket 4.5 15:18:21 10° N 15:24:25 55° ENE 15:25:33 48° ESE
Cosmos 1814 Rocket 4.4 15:19:18 10° SW 15:24:36 64° NW 15:27:14 30° NNE
Meteor 1-26 Rocket 4.4 15:22:11 10° S 15:28:01 54° E 15:28:33 52° ENE
SL-24 DEB 4.1 15:23:15 10° N 15:28:04 74° E 15:32:50 10° S
Cosmos 2322 Rocket 3.3 15:24:17 10° W 15:29:33 36° NNW 15:31:55 26° NNE
SL-16 R/B 3.5 15:25:15 10° S 15:27:59 25° SSE 15:27:59 25° SSE
MOS 1 Rocket 4.5 15:34:55 34° SSE 15:34:55 34° SSE 15:38:09 10° S
Helios 1A Rocket 3.6 15:29:03 10° S 15:33:00 52° WSW 15:36:58 10° NNW
Cosmos 44 Rocket 3.3 15:28:27 10° WNW 15:33:34 76° NNE 15:33:56 72° ENE
Cosmos 2263 4.0 15:29:53 10° NW 15:35:35 83° NE 15:36:38 60° SE
ARGOS 3.0 15:34:14 37° SSE 15:36:28 85° ENE 15:41:55 10° NNW
NOSS 0 Rocket 3.8 15:32:39 10° SW 15:38:55 83° SE 15:40:40 50° NE
ADEOS Rocket 4.5 15:33:57 10° NNE 15:40:53 46° NW 15:48:09 10° WSW
CZ-2C R/B 3.6 15:37:34 10° S 15:42:34 55° W 15:47:22 10° NNW
MetOp-A 4.4 15:44:25 50° NNE 15:44:25 50° NNE 15:48:48 10° NNW
H-2A R/B 3.6 15:40:57 16° N 15:43:34 32° WNW 15:47:16 10° WSW
EO 1 Delta rocket 4.0 15:41:48 35° NNE 15:44:00 87° ESE 15:49:49 10° SSW
Cosmos 2333 Rocket 2.7 15:38:33 10° WSW 15:44:10 56° NW 15:46:09 37° NNE
Cosmos 836 Rocket 4.3 15:39:12 10° SSW 15:44:30 81° ESE 15:44:43 79° E
SKYMED 2 3.7 15:45:10 69° SW 15:45:10 69° SW 15:49:04 10° SSW
USA 215 3.6 15:44:55 45° SE 15:45:30 46° SSE 15:51:45 10° SW
Ariane Rocket 3.6 15:47:27 43° N 15:47:27 43° N 15:51:05 10° NNW
Cosmos 1607 4.1 15:41:02 10° WSW 15:47:27 72° NNW 15:49:06 51° NE
MOS 1 4.4 15:48:38 56° NE 15:48:38 56° NE 15:53:38 10° NNW
Cosmos 1606 3.6 15:44:38 10° SSW 15:48:01 49° W 15:48:01 49° W
COSMOS 2428 3.1 15:43:40 10° WSW 15:49:22 61° NW 15:51:10 42° NNE
Cosmos 1697 Rocket 3.8 15:44:55 10° NW 15:49:54 30° N 15:50:09 30° NNE
Cosmos 2084 Rocket 3.9 15:46:25 10° W 15:49:54 57° WNW 15:49:54 57° WNW
Cosmos 724 4.3 15:45:24 10° SW 15:51:23 88° NW 15:52:19 67° NE
Resurs 01 Rocket 4.0 16:00:02 13° N 16:00:02 13° N 16:00:37 10° N
Cosmos 2181 Rocket 4.0 15:50:22 10° SSW 15:56:49 81° WNW 16:03:14 10° NNE
Cosmos 1934 Rocket 4.0 15:51:08 10° NNW 15:57:09 63° NE 15:57:09 63° NE
Cosmos 1821 Rocket 3.9 15:52:21 10° NNW 15:58:34 90° NE 16:00:35 46° SSE
CZ-4 R/B 3.2 16:01:50 10° SSW 16:05:15 30° W 16:08:51 10° NNW
Meteor 1-5 Rocket 4.3 15:59:20 10° NNW 16:05:23 84° WSW 16:06:22 64° S
Cosmos 2056 Rocket 4.3 16:04:57 10° NNW 16:08:35 43° N 16:08:35 43° N
Cosmos 2360 Rocket 3.4 16:06:08 10° W 16:11:15 34° NNW 16:12:26 31° N
ERS-2 4.3 16:16:18 24° W 16:16:18 24° W 16:18:15 10° WSW
NOSS 3-3 (A) 4.4 16:11:24 10° WNW 16:18:26 74° SW 16:19:47 61° SSE
NOSS 3-3 (C) 4.4 16:11:30 10° WNW 16:18:31 75° SW 16:19:51 61° SSE
Cosmos 2219 Rocket 3.0 16:14:18 10° WSW 16:19:43 44° NNW 16:20:38 41° N
Cosmos 1980 Rocket 3.5 16:20:31 10° NW 16:24:50 29° N 16:24:50 29° N
SL-16 R/B 3.5 16:21:04 10° WNW 16:26:00 29° N 16:26:17 29° N
Cosmos 2237 Rocket 2.4 16:21:33 10° SW 16:26:47 65° WNW 16:26:47 65° WNW
GEOS 3 Rocket 4.2 16:32:17 54° NNW 16:32:17 54° NNW 16:36:39 10° WNW
COSMO-SKYMED 1 4.3 16:33:45 31° W 16:33:45 31° W 16:36:38 10° SW
Cosmos 2369 Rocket 3.1 16:28:42 10° NW 16:34:04 43° WSW 16:34:50 41° SW
Cosmos 1656 Rocket 4.1 16:28:27 10° NW 16:33:31 59° W 16:33:31 59° W
Meteor 1-11 Rocket 4.3 16:31:04 10° NNW 16:35:21 53° NNW 16:35:21 53° NNW
SeaSat 1 4.0 16:43:44 31° NNW 16:43:44 31° NNW 16:46:20 10° NW
Cosmos 1980 4.3 16:39:38 10° WSW 16:44:34 53° WNW 16:44:34 53° WNW
H-2A R/B 3.8 16:43:09 10° SSW 16:47:46 30° W 16:52:20 10° NNW
Cosmos 1943 Rocket 4.3 17:02:01 10° WNW 17:05:58 20° WSW 17:07:55 17° SW
SL-16 R/B 4.3 17:08:31 10° SW 17:09:55 18° SW 17:09:55 18° SW
Cosmos 2322 Rocket 3.9 17:10:08 10° NW 17:13:44 26° NNW 17:13:44 26° NNW
USA 215 4.4 17:32:16 33° WSW 17:32:16 33° WSW 17:35:43 10° WSW
Cosmos 2333 Rocket 3.9 17:24:28 10° WNW 17:28:10 28° NW 17:28:10 28° NW
COSMOS 2428 4.4 17:29:32 10° WNW 17:33:12 28° NW 17:33:12 28° NW
Cosmos 2360 Rocket 4.4 17:51:52 10° NW 17:54:11 21° NW 17:54:11 21° NW
Cosmos 2219 Rocket 4.4 18:00:05 10° WNW 18:02:22 20° NW 18:02:22 20° NW
CENTAUR R/B 4.3 22:56:02 33° E 22:56:02 33° E 23:00:20 10° E
Cosmos 2082 Rocket 4.4 23:21:08 20° NNE 23:21:08 20° NNE 23:23:02 10° NE
